GFSSGP_sfc_dewp_132.txt.gz
Dewpoint
57 40 38 31 22 25 25 24 23 22 24 26 29 28 27 33 53 57 71 61 65 70 73 74 78 78 78 77 76 76 76 76 76 76 75 76 76 76 76 75 76 76 76 75 74 73 73 72 72
37 37 29 20 23 24 24 25 24 25 27 28 29 28 26 39 59 59 61 65 68 71 73 73 78 78 78 77 76 76 76 76 76 76 75 76 76 76 76 75 75 75 74 74 73 73 73 72 72
41 30 19 20 23 22 22 25 26 26 28 29 29 28 28 35 57 58 60 67 69 71 72 75 78 77 77 77 76 76 76 76 76 76 75 75 76 76 76 76 75 74 73 73 73 72 72 72 72
27 19 15 17 18 20 22 22 25 27 28 30 30 29 28 41 62 62 61 67 69 70 70 76 77 77 77 77 76 76 76 76 76 76 75 75 76 76 76 76 75 74 73 72 72 73 73 73 72
28 12 10 15 16 17 18 20 21 23 28 29 31 29 30 43 63 62 62 66 68 67 73 75 77 77 76 77 77 76 76 76 76 76 75 75 76 76 76 76 75 74 73 73 73 73 73 73 73
20 8 6 5 8 11 15 17 18 19 24 28 29 29 31 52 55 60 61 65 65 68 72 73 77 77 76 77 76 76 76 76 76 75 75 75 75 75 76 76 75 75 74 74 73 73 73 73 73
23 10 0 -3 -1 -0 2 6 8 11 16 24 26 27 28 38 52 59 62 64 63 69 69 70 73 76 77 76 76 76 76 76 75 75 75 75 75 75 75 75 75 75 74 74 74 73 73 73 73
24 19 10 0 -4 -6 -5 -6 -5 1 7 18 22 25 27 33 52 59 61 63 62 67 66 67 69 72 73 74 76 76 76 75 75 75 75 75 75 75 75 75 75 74 74 74 74 73 73 73 73
27 20 16 12 6 1 -2 -6 -9 -5 0 5 9 18 21 42 52 59 60 62 62 65 66 64 65 67 66 68 74 75 75 75 75 75 75 74 70 72 73 72 74 75 74 73 73 73 73 73 72
27 23 19 15 13 10 7 6 0 -4 -1 1 3 8 21 47 50 56 59 61 62 65 64 63 65 64 63 62 71 71 71 72 72 71 73 70 69 70 67 70 75 75 74 73 73 73 72 71 66
24 24 21 17 15 13 9 8 6 1 3 4 3 5 10 27 48 48 55 60 62 64 66 63 66 66 63 64 68 66 67 68 69 69 71 70 67 71 67 71 71 73 73 70 71 70 69 65 63
17 20 22 20 17 15 13 12 10 6 5 3 5 5 7 14 38 48 49 55 65 66 67 66 66 67 68 67 65 66 66 67 67 68 70 69 70 73 70 68 69 71 69 69 68 65 65 64 64
22 20 22 22 21 18 16 15 12 10 8 8 8 7 9 42 49 51 52 53 61 67 69 68 69 70 71 69 67 67 67 67 67 69 70 69 70 73 72 71 70 68 68 69 68 66 64 64 64
23 22 19 20 21 20 16 14 15 15 13 12 12 10 21 36 37 52 54 55 63 69 72 69 68 71 73 71 71 71 71 69 70 69 70 71 72 73 72 73 72 71 69 69 68 69 71 71 71
19 20 19 18 19 20 20 15 15 16 15 16 14 16 17 22 25 34 53 56 68 72 65 73 72 73 76 77 73 71 72 69 70 73 72 71 74 73 70 72 71 72 73 73 72 71 71 70 69
19 21 20 20 18 19 19 17 18 18 16 15 17 17 18 19 22 31 38 57 68 71 61 68 70 73 76 77 76 73 74 73 71 71 72 72 74 74 74 72 72 73 67 66 65 66 65 66 66
20 17 17 17 18 17 18 19 19 19 19 21 23 22 20 20 25 35 38 56 68 73 68 72 72 72 74 76 76 76 76 73 75 73 71 72 73 74 73 74 72 68 67 65 64 64 64 64 63
19 16 16 16 16 17 17 19 20 20 18 21 22 23 24 24 24 31 42 59 71 70 62 63 73 73 74 74 76 73 75 75 74 73 73 74 73 73 74 73 70 69 67 65 64 64 66 63 61
20 16 14 16 16 17 20 20 21 22 22 20 22 23 26 27 26 31 40 64 68 67 70 66 70 74 74 73 73 73 72 74 75 75 74 74 74 74 72 70 69 68 65 65 65 64 63 64 61
23 19 17 17 14 19 20 21 22 22 23 24 25 26 26 29 28 31 43 59 67 63 62 60 66 73 74 74 74 73 73 74 73 74 74 73 72 72 71 69 67 66 63 64 64 64 62 63 62
20 20 22 18 16 16 19 20 23 21 22 24 24 26 29 30 31 31 41 49 63 63 64 65 71 74 75 74 73 76 75 73 72 72 72 71 71 70 69 68 66 66 66 64 64 63 64 64 65
19 17 20 19 19 15 20 16 24 24 24 26 25 26 26 30 32 30 40 46 57 67 70 73 74 76 74 73 73 73 71 70 72 71 71 69 69 67 68 68 67 67 65 63 63 65 66 65 63
20 18 15 16 18 20 17 17 18 24 23 26 27 26 27 29 31 27 37 44 51 60 68 71 73 74 73 73 74 73 72 71 71 69 67 66 66 67 65 66 66 66 67 67 66 65 65 64 62
24 26 17 17 16 17 20 19 17 17 24 26 28 26 26 27 30 29 34 46 49 56 66 71 72 70 73 73 74 73 71 69 67 66 65 65 65 65 65 65 66 66 66 65 64 64 62 61 60
24 25 23 18 17 17 20 20 22 23 22 25 28 26 27 29 31 30 30 39 45 54 65 71 69 70 71 73 73 73 71 68 67 65 64 64 64 64 64 64 65 65 64 61 61 61 60 59 58
23 28 29 18 19 19 21 19 21 26 23 23 27 28 28 32 31 30 32 38 39 60 67 69 69 66 69 70 68 69 68 66 65 65 64 64 64 64 64 62 61 61 60 59 60 60 59 60 58
22 20 26 27 23 19 22 22 25 24 22 24 25 28 29 32 32 34 34 38 65 66 67 67 67 66 67 67 67 67 66 64 64 64 63 63 63 60 61 60 58 57 57 58 59 59 58 59 59
24 20 20 32 31 24 29 23 20 23 24 24 26 29 29 32 31 39 61 63 64 64 65 66 66 65 64 64 64 63 63 63 63 63 61 61 61 59 59 58 58 56 56 57 59 58 58 58 58
25 22 22 28 31 29 27 26 26 27 25 27 26 29 32 31 52 59 60 61 62 63 64 65 63 62 62 62 62 62 61 61 60 59 58 58 59 58 57 57 57 55 54 57 58 57 56 56 56
39 34 25 27 29 33 34 30 31 27 29 31 36 48 52 54 55 57 58 59 61 62 63 64 61 60 59 60 60 60 60 59 58 58 58 58 57 58 58 56 55 54 54 54 54 54 54 53 53

GFSSGP_sfc_dewp_135.txt.gz
Dewpoint
61 49 43 37 24 23 23 25 26 25 24 27 30 29 41 50 51 54 65 63 71 73 76 77 78 78 77 77 76 76 76 76 76 76 76 76 76 76 76 76 76 76 76 74 74 74 73 72 72
43 36 34 33 20 21 23 25 25 25 26 29 29 28 28 54 62 64 63 67 70 73 74 76 78 77 77 77 76 76 76 76 75 75 76 76 76 76 76 76 76 76 74 74 73 73 73 72 72
50 37 29 19 19 19 22 26 27 27 26 30 30 29 36 58 62 59 61 70 71 71 73 76 78 77 77 77 76 76 76 76 75 75 76 76 76 76 75 75 76 75 74 74 73 73 73 72 72
32 26 21 14 16 21 23 23 23 23 22 30 30 29 50 62 62 64 70 71 70 71 75 77 77 77 77 76 76 76 76 76 76 75 76 76 76 76 75 75 75 75 74 73 73 73 73 72 72
30 27 14 13 14 17 19 23 23 22 21 24 31 32 58 62 66 68 69 70 69 72 75 77 77 77 77 76 76 76 76 76 75 75 75 76 76 76 76 75 75 74 74 73 72 73 73 73 72
30 17 10 8 10 15 17 17 17 17 17 20 31 31 55 61 65 67 68 69 69 73 75 76 77 77 76 76 76 76 76 76 75 75 75 75 76 76 76 75 75 74 74 74 73 73 73 73 73
32 22 6 6 6 5 9 13 16 15 13 14 28 29 51 60 61 67 68 68 71 72 73 75 76 75 75 76 76 76 75 75 75 75 75 75 75 75 76 75 75 74 74 74 74 73 73 72 72
31 26 21 10 -0 -2 -2 -2 9 9 8 11 28 27 29 52 61 65 65 66 71 70 72 74 75 74 74 76 76 76 76 75 75 75 75 75 75 75 75 74 75 75 74 74 74 73 73 73 72
34 28 21 19 15 6 4 -0 1 -2 5 7 14 14 30 55 59 62 63 66 69 68 69 71 74 74 74 75 75 76 76 76 75 75 75 74 73 73 74 74 74 74 74 73 73 73 73 72 72
32 28 25 21 18 15 14 13 11 8 4 8 8 10 50 57 59 59 62 64 67 66 67 68 70 72 72 72 73 74 74 74 73 73 73 72 69 71 72 72 74 74 74 73 73 73 72 72 69
28 28 27 25 23 20 18 16 14 11 2 3 3 9 18 49 52 59 60 62 65 65 65 65 66 65 65 70 72 72 72 72 71 71 71 69 67 70 69 70 72 72 74 72 72 72 71 68 66
18 22 26 26 25 23 19 19 18 16 12 7 7 10 12 25 47 47 50 62 68 67 65 64 64 63 63 68 67 67 68 68 68 69 69 68 68 68 66 69 71 71 71 70 69 68 68 65 63
22 18 17 20 20 21 22 21 19 16 16 11 7 10 11 10 39 46 47 62 69 70 69 67 66 63 67 65 64 65 65 67 66 68 68 67 67 68 66 68 68 70 69 68 67 65 64 64 64
22 24 23 19 20 22 22 21 19 17 20 17 12 15 19 43 47 49 52 54 67 70 68 69 69 70 66 66 64 65 65 66 66 67 67 66 68 69 68 68 69 69 67 68 70 70 70 69 68
26 22 21 21 23 21 22 21 20 19 19 16 17 14 18 29 34 37 52 67 70 69 69 69 70 70 71 70 66 67 66 69 67 67 68 67 69 72 71 70 70 70 70 69 68 66 67 66 64
30 22 17 18 18 21 20 19 21 21 18 19 17 17 18 22 21 23 33 69 70 69 68 69 67 67 68 73 70 70 70 67 68 68 69 70 70 71 70 71 69 66 66 64 64 63 63 63 61
29 25 18 17 20 20 18 16 20 22 19 19 18 18 17 19 24 24 34 65 67 68 69 70 70 70 71 73 73 72 72 68 70 71 69 70 72 71 71 70 66 65 64 63 62 61 61 59 59
27 24 21 18 19 20 18 17 18 22 20 19 18 21 21 20 19 25 60 61 60 62 65 65 67 69 72 73 73 72 73 73 73 72 72 72 72 72 70 68 66 65 63 62 61 61 60 58 57
27 24 20 18 19 17 16 16 17 20 20 20 19 18 20 21 22 26 67 65 65 67 65 66 67 65 68 71 71 70 70 71 72 72 72 71 72 70 70 67 66 65 63 63 61 60 60 59 57
25 27 26 23 20 16 16 16 18 20 20 20 23 18 21 20 25 27 64 68 60 62 63 64 65 66 65 67 72 71 70 70 72 72 71 71 70 68 67 66 64 63 63 61 60 59 59 60 57
17 23 25 23 23 21 19 17 16 20 21 20 21 24 20 22 23 26 58 67 63 61 63 64 64 66 65 65 71 70 71 72 71 70 70 69 69 69 66 65 64 63 62 60 60 60 60 60 61
14 18 21 21 22 18 20 17 16 18 22 20 20 24 21 21 26 25 45 64 60 60 59 60 62 64 70 71 71 70 68 69 70 69 69 68 67 67 67 65 64 63 63 61 59 59 62 61 59
27 23 18 21 19 18 19 18 18 20 18 21 22 25 25 23 23 27 37 63 62 61 58 58 60 65 70 71 71 71 69 70 69 67 64 64 65 66 65 63 62 62 62 63 62 61 61 60 58
31 27 24 24 24 18 16 17 17 17 18 21 21 21 25 27 27 27 37 57 61 59 60 62 63 65 70 70 71 70 69 68 65 64 64 62 62 63 63 64 63 63 63 62 61 60 58 56 56
30 25 28 23 21 18 15 14 17 20 22 21 21 22 26 25 29 28 40 56 66 67 59 63 65 69 70 70 70 69 68 67 64 63 62 61 61 60 61 62 62 61 59 58 58 56 56 55 54
28 25 28 24 19 17 16 13 15 19 20 25 23 25 27 26 29 27 40 52 67 67 68 68 67 68 68 69 69 68 66 65 64 63 63 61 61 61 61 61 59 58 58 57 57 57 56 56 54
33 27 27 27 27 26 18 17 24 18 19 22 24 25 26 28 32 28 41 48 67 68 67 67 68 68 67 67 67 66 65 64 62 61 61 61 59 59 58 57 56 55 55 56 55 56 55 55 54
34 29 25 31 25 22 28 28 18 23 19 21 23 23 27 29 34 42 60 66 67 66 65 66 66 66 66 66 65 64 63 62 61 61 59 58 58 56 55 55 54 54 54 55 54 54 54 54 54
36 30 29 32 31 28 24 25 29 28 27 20 23 23 27 41 60 62 63 64 65 65 64 64 63 62 62 62 61 61 60 59 57 56 56 56 56 55 54 54 54 53 53 52 52 52 52 51 51
36 34 35 30 25 28 31 26 33 36 37 29 33 37 47 59 60 61 62 63 63 63 62 61 61 60 59 60 59 58 57 56 55 55 55 54 53 54 52 51 50 51 52 50 49 48 48 48 48

GFSSGP_sfc_dewp_138.txt.gz
Dewpoint
59 48 46 37 30 22 21 22 26 25 26 27 29 35 48 50 49 46 63 63 69 74 76 77 77 77 77 77 76 76 76 75 75 75 76 75 75 75 75 76 76 76 75 75 74 73 72 71 71
45 39 34 34 21 19 21 23 23 25 28 27 28 48 53 55 61 61 57 67 70 73 76 77 77 77 77 76 76 76 76 75 75 75 76 76 75 75 75 76 76 76 74 74 73 73 72 72 72
51 39 31 31 18 18 21 25 25 27 27 24 25 41 57 56 62 59 63 70 72 73 75 77 77 77 77 76 76 76 75 75 75 75 75 75 75 75 75 76 76 75 74 73 73 73 72 72 72
34 27 23 17 17 19 20 23 23 23 23 23 29 56 61 61 59 60 70 71 71 72 74 77 77 77 76 76 76 76 75 75 75 75 75 75 75 75 75 75 75 75 73 73 72 72 72 72 72
32 25 16 13 14 16 18 21 23 23 23 21 21 48 59 62 63 69 70 69 69 72 75 77 77 77 76 76 76 76 75 75 75 75 75 75 76 75 75 75 75 75 73 72 72 72 72 72 71
28 24 12 14 14 14 16 18 18 17 17 17 47 57 60 66 68 69 69 68 70 72 75 76 77 76 76 76 76 76 75 75 75 75 75 75 76 75 75 75 75 74 74 73 72 72 72 73 72
31 24 13 9 8 8 9 12 14 16 17 16 21 56 61 66 68 69 69 68 71 73 74 75 75 76 76 76 75 75 75 75 75 74 75 75 75 75 75 75 74 74 74 74 73 73 72 72 72
33 29 23 14 8 4 5 4 3 8 11 12 20 47 59 65 68 69 68 70 72 72 74 73 73 73 74 75 76 75 75 75 75 75 75 75 75 75 75 74 74 74 74 74 73 73 72 72 71
34 29 25 24 21 13 8 7 9 7 4 3 18 36 60 65 68 67 68 70 70 71 73 73 72 72 72 74 75 75 75 75 75 75 75 74 73 73 74 74 74 74 74 73 73 73 73 72 72
33 30 28 25 22 19 18 16 16 14 13 7 6 44 58 65 66 66 68 68 69 69 72 72 71 71 71 72 72 74 73 74 73 73 73 72 71 71 72 73 74 74 74 73 73 73 72 72 69
28 29 28 29 26 25 23 22 21 16 12 7 4 48 58 62 64 64 67 68 68 68 70 72 73 72 72 72 72 72 72 73 72 72 71 70 70 71 71 70 72 72 73 71 72 71 70 69 68
22 25 30 30 29 27 25 23 22 20 19 18 15 28 57 61 62 63 65 68 68 68 68 69 70 68 70 72 71 72 71 71 70 71 70 68 66 69 68 69 71 71 71 70 69 69 69 68 64
21 20 19 23 26 27 26 24 23 22 23 21 16 11 19 49 56 60 65 66 66 66 67 68 67 65 69 69 68 68 68 69 69 70 69 68 67 66 67 68 69 70 70 69 67 68 66 64 65
20 22 23 22 19 19 21 20 22 22 23 19 17 11 11 12 38 48 65 65 65 66 67 67 66 67 67 66 66 67 67 67 67 68 68 66 66 67 67 67 68 69 69 68 69 68 67 68 67
27 24 23 24 23 21 19 19 20 22 22 19 18 15 15 30 40 49 65 65 65 66 67 67 67 69 67 67 65 68 65 67 66 67 68 67 66 68 69 68 69 70 70 70 68 67 67 65 63
34 31 25 24 24 22 24 21 23 23 21 21 20 16 17 23 30 60 66 68 67 68 67 67 69 69 68 69 68 66 66 68 66 67 68 68 69 70 70 70 68 67 66 66 64 64 63 61 60
34 31 29 25 21 19 20 19 22 23 23 22 21 19 18 18 29 64 69 68 67 67 67 68 68 68 68 71 70 69 69 67 67 68 68 69 71 70 70 67 66 66 64 64 63 61 60 57 57
30 30 28 25 21 19 18 17 19 22 20 21 21 20 20 19 23 55 68 67 67 67 67 67 67 67 68 73 71 72 71 72 72 71 70 71 71 71 68 66 65 64 63 62 61 60 59 57 56
29 30 28 26 24 21 19 19 21 21 22 19 20 20 20 22 22 61 68 67 66 67 66 66 65 66 69 72 71 70 70 71 71 72 72 71 71 69 67 66 64 63 62 61 60 60 59 57 56
19 20 22 26 29 25 20 19 19 19 20 21 21 21 20 22 43 61 61 65 65 65 66 67 67 68 69 70 70 70 70 71 71 71 71 70 69 68 66 65 64 62 62 60 59 59 58 58 56
19 17 17 18 23 26 25 23 23 21 20 21 22 22 22 22 39 64 61 62 63 63 65 66 66 67 66 67 70 70 70 71 70 69 70 69 68 67 66 64 63 62 60 59 58 59 58 57 58
24 22 18 17 21 22 23 17 19 22 20 21 20 21 22 21 31 64 61 61 61 61 64 65 65 64 63 64 67 68 67 68 68 69 68 67 67 66 65 64 63 62 61 59 58 59 60 59 57
23 28 25 26 23 17 19 18 19 21 21 20 22 20 21 22 26 64 63 60 61 61 61 64 64 64 64 61 65 68 69 69 69 68 65 64 65 65 65 63 62 61 58 58 60 60 59 58 56
26 30 30 28 25 19 17 18 17 18 19 20 21 22 21 23 25 59 65 62 60 61 61 63 63 64 68 63 67 69 69 69 66 64 63 62 63 63 63 62 62 62 61 61 60 59 57 55 55
31 31 23 23 21 20 21 21 20 21 21 20 21 22 23 25 26 44 62 62 61 58 56 60 62 64 68 69 69 69 69 67 65 63 62 62 61 60 61 61 61 60 59 58 57 56 55 54 53
27 31 27 21 17 16 20 20 18 19 19 22 23 23 24 27 26 40 60 62 60 57 56 59 62 65 68 69 68 68 66 65 65 64 62 61 61 60 61 61 59 57 56 56 56 56 56 55 54
30 29 30 27 26 27 26 21 21 21 19 21 20 20 25 27 29 37 56 60 60 58 57 62 65 68 68 67 67 66 64 63 62 61 61 61 60 59 58 57 56 56 55 55 54 54 54 54 53
34 33 27 30 23 20 27 24 21 18 18 25 20 20 25 30 30 43 60 60 61 58 63 67 68 68 67 66 66 64 63 62 62 61 59 58 57 56 55 54 53 54 55 53 53 52 51 50 50
34 32 34 31 30 21 21 23 23 24 32 36 35 32 25 32 39 53 64 65 63 65 67 67 65 64 64 63 63 62 61 61 60 59 58 55 55 54 54 53 53 52 51 50 49 48 48 47 48
35 35 34 28 26 28 25 23 28 32 36 36 35 40 39 51 53 62 65 65 65 65 64 63 62 62 61 61 59 58 58 57 57 55 54 53 53 52 51 50 48 48 46 46 46 45 45 44 44

GFSSGP_sfc_dewp_141.txt.gz
Dewpoint
61 48 45 37 31 23 22 23 25 25 25 27 28 43 43 48 47 45 63 67 72 74 76 76 77 77 77 76 76 75 75 75 75 74 74 75 75 75 76 76 76 76 75 74 73 72 72 71 71
48 39 35 31 26 22 23 23 23 26 27 27 25 39 50 49 60 59 63 68 71 74 76 76 77 77 77 76 76 75 75 75 75 75 74 75 75 75 75 76 76 75 74 74 73 72 72 71 72
52 38 32 31 23 21 18 23 24 26 26 26 23 37 56 53 62 57 63 69 72 74 76 76 77 77 77 76 76 75 75 75 75 76 74 74 75 75 76 76 76 74 73 73 73 72 72 72 72
35 27 24 21 24 21 20 22 24 22 23 24 25 21 58 61 61 62 70 71 72 74 75 77 77 77 76 76 76 75 75 75 75 75 75 74 74 75 76 76 75 74 73 73 73 72 72 72 72
31 24 21 17 19 19 19 21 23 23 23 24 20 22 56 61 65 69 70 70 71 73 76 76 77 76 76 76 76 75 75 75 75 75 75 74 75 75 75 75 75 74 73 73 72 72 72 71 71
27 24 17 14 14 17 17 18 18 18 19 18 19 49 59 65 67 69 70 69 71 73 75 76 76 76 76 76 76 75 75 75 75 75 75 75 75 75 75 75 74 74 73 72 72 72 72 71 71
27 20 20 13 10 10 14 15 14 16 17 16 21 57 60 66 67 69 68 68 70 74 74 74 75 76 76 76 76 75 74 75 75 75 75 75 75 75 75 75 74 74 74 73 72 72 71 71 71
32 30 27 16 11 11 10 9 9 10 5 14 20 50 54 65 68 68 68 70 72 73 73 73 72 74 74 75 76 75 75 75 74 75 75 75 75 75 75 74 74 74 74 73 73 72 72 72 71
33 29 25 22 16 10 11 4 8 9 4 17 12 39 58 68 68 67 70 71 71 72 72 72 72 74 74 74 74 75 75 74 74 74 75 74 72 73 74 74 74 74 74 74 73 73 72 72 71
32 29 25 24 20 18 16 18 19 18 19 18 16 21 64 68 67 67 68 69 69 69 71 71 71 71 70 71 72 73 72 73 73 72 72 71 71 71 73 73 74 74 74 73 73 73 72 71 68
30 28 26 28 27 26 23 24 23 20 19 17 12 18 65 67 66 67 68 68 68 69 70 71 71 70 70 70 72 73 71 72 72 72 71 70 70 70 71 70 71 71 72 71 71 70 70 68 67
20 26 27 28 28 29 28 26 24 22 22 22 23 25 45 66 66 66 67 67 69 70 70 71 70 71 71 71 71 70 71 71 72 71 70 68 68 68 69 69 69 71 71 69 69 69 69 68 66
22 20 21 25 29 30 29 28 27 26 26 26 25 23 29 65 65 66 67 68 68 69 70 70 72 71 72 71 71 71 71 71 71 71 70 68 67 67 68 68 69 70 70 70 68 68 67 66 64
26 23 21 21 22 23 26 25 25 23 24 23 24 22 17 63 64 65 67 67 67 68 70 70 69 70 71 70 71 70 70 70 70 70 70 68 67 66 67 66 68 69 69 69 68 67 66 67 66
27 25 25 24 23 23 22 20 20 20 20 21 23 22 16 33 52 64 67 67 67 67 68 68 68 69 69 68 68 69 68 69 68 68 69 67 66 67 67 66 67 68 69 68 68 66 66 65 62
33 32 29 25 23 24 22 21 23 24 23 24 24 22 18 30 41 63 66 66 66 67 67 67 66 67 67 67 68 68 68 68 67 67 68 68 65 67 69 69 68 68 67 66 65 64 62 61 60
30 29 31 29 28 22 22 21 23 25 23 23 24 24 20 18 56 61 66 66 65 66 66 66 67 67 66 66 67 68 68 68 68 67 67 68 68 70 69 68 66 65 65 64 63 61 60 58 57
26 31 31 29 26 23 21 21 22 22 22 23 23 24 23 19 35 66 65 66 66 66 66 65 66 67 68 68 67 68 68 68 68 67 67 69 70 70 67 65 65 64 63 62 61 59 58 57 56
23 23 25 29 28 27 24 22 20 22 21 20 22 23 22 20 23 67 67 66 66 67 66 66 67 67 68 69 67 67 68 68 69 69 69 70 70 68 66 65 64 63 62 61 59 59 58 56 56
20 19 19 22 25 25 28 26 26 23 22 22 22 23 22 22 50 66 67 67 66 66 66 66 66 66 67 71 69 68 69 69 70 70 70 70 69 67 66 65 63 62 60 59 59 58 58 56 56
20 19 19 18 19 18 21 23 24 27 23 22 22 23 23 23 54 64 65 66 66 65 65 65 65 65 66 70 70 70 70 69 68 69 69 69 68 67 66 65 63 62 60 59 58 58 56 54 58
21 24 24 24 19 15 23 20 21 23 22 22 22 21 23 23 49 61 65 65 65 65 65 65 65 66 67 68 70 69 68 67 67 69 68 67 67 66 65 63 62 61 59 59 58 60 59 57 56
13 22 26 28 25 25 24 18 19 21 20 21 22 23 22 23 52 58 63 65 65 65 65 65 65 67 67 68 69 68 68 68 68 67 66 65 65 65 64 63 62 60 59 57 59 59 58 57 55
21 29 29 29 27 23 22 18 16 18 20 21 22 23 24 23 42 58 60 63 64 64 65 65 65 66 62 64 66 67 68 68 67 65 65 64 63 63 62 62 61 60 59 60 59 58 56 55 54
32 29 23 20 22 20 22 20 18 21 21 20 21 22 25 25 28 57 58 61 61 62 63 63 63 63 62 62 67 67 68 67 66 64 63 63 61 61 60 61 60 59 59 57 57 56 54 54 53
28 29 24 14 15 13 20 20 21 22 22 23 23 23 24 25 24 51 59 59 60 60 61 62 63 64 65 62 66 68 67 66 65 63 63 61 61 61 60 59 58 56 56 55 56 55 55 54 54
33 28 28 25 28 26 25 24 20 20 21 23 22 21 22 25 26 35 61 59 59 60 59 61 62 66 67 67 68 66 65 64 62 62 62 61 61 59 58 57 56 55 54 54 53 52 52 52 52
32 33 29 31 17 21 24 24 19 20 20 20 23 32 33 26 27 29 59 60 60 59 58 60 62 66 68 68 66 64 63 63 62 62 61 59 57 55 54 54 54 52 51 50 49 49 48 48 49
34 33 35 30 26 18 19 23 25 23 25 22 24 35 38 34 28 29 56 59 59 57 58 62 64 67 66 65 63 63 62 62 61 60 58 56 54 53 52 51 49 48 47 46 45 45 44 44 44
34 33 36 31 24 27 24 20 27 31 35 36 35 36 43 42 33 33 56 60 58 59 64 65 66 65 63 62 61 61 61 60 58 57 55 52 50 49 48 46 45 44 43 43 43 43 42 42 42

GFSSGP_sfc_dewp_144.txt.gz
Dewpoint
59 48 42 36 29 25 23 25 26 25 25 27 28 33 39 41 48 45 65 66 72 74 76 76 77 77 76 76 76 75 75 75 75 75 75 75 75 75 75 76 76 75 74 74 73 72 72 71 72
51 39 35 30 25 24 20 24 24 26 27 27 25 26 47 49 58 61 65 71 72 75 75 76 77 77 76 76 75 75 75 75 74 74 74 74 75 75 75 76 76 75 74 73 73 72 71 71 71
49 35 30 31 26 19 12 23 24 25 26 27 23 30 47 54 61 60 65 71 74 75 75 75 77 77 76 76 75 75 75 74 74 74 74 75 75 75 75 76 75 74 73 73 73 72 71 72 72
37 26 24 26 27 24 19 24 23 22 22 24 24 21 34 62 60 60 70 73 74 74 75 75 76 76 76 76 75 75 75 75 74 74 74 75 75 75 75 75 75 74 73 73 72 72 72 72 72
30 23 16 22 23 25 22 22 23 21 24 24 20 20 24 60 67 68 71 72 73 74 75 75 77 76 76 76 75 75 75 75 75 74 74 74 75 75 75 75 75 74 73 73 72 72 72 71 71
29 24 17 7 13 18 21 22 20 19 20 19 18 21 49 66 68 69 70 71 73 74 74 75 76 76 76 75 75 75 74 75 75 74 74 74 75 75 75 75 75 74 73 73 72 72 71 71 71
26 23 17 16 11 10 10 17 17 18 18 18 18 33 56 65 68 70 69 70 72 74 73 74 75 75 76 75 75 75 74 75 75 75 74 74 75 75 75 74 74 74 74 73 72 71 71 71 71
30 24 25 17 9 7 10 14 12 15 15 16 19 21 40 65 69 68 69 71 73 73 72 72 73 73 74 74 75 75 75 75 75 75 75 74 75 75 74 73 73 74 73 73 72 71 71 71 71
33 27 24 19 15 8 12 7 11 11 6 17 16 22 33 68 68 69 70 71 71 72 71 72 72 72 73 74 73 74 74 74 75 75 75 74 73 74 73 73 73 73 73 73 72 72 72 71 71
31 29 26 22 19 13 12 17 18 19 20 20 19 20 64 67 67 68 68 68 69 69 70 70 70 71 72 71 73 73 72 73 73 73 73 72 72 72 73 73 74 74 73 73 73 72 72 70 69
30 28 28 27 25 24 23 24 21 20 19 19 18 21 66 67 67 67 68 68 68 68 70 71 71 72 71 70 72 72 72 72 72 72 71 71 71 71 72 71 72 72 73 71 71 70 70 69 68
22 28 28 28 27 27 28 28 26 24 24 22 21 23 41 66 66 67 67 68 68 68 69 71 71 70 70 71 70 71 70 70 71 71 70 69 69 69 70 70 69 71 71 70 70 70 69 68 68
22 21 20 26 27 27 30 29 28 28 28 28 28 27 26 38 66 67 68 68 68 68 69 71 70 70 70 70 70 70 70 70 71 71 70 69 68 68 68 69 69 70 71 71 70 68 68 68 66
29 26 24 21 20 23 23 23 25 25 25 28 28 25 25 23 61 67 67 68 68 68 69 70 70 71 71 70 70 70 70 71 71 71 70 69 67 67 68 67 68 69 70 70 70 69 68 68 67
28 27 26 26 24 22 23 21 21 22 22 21 20 23 24 22 66 67 67 68 68 68 69 69 70 70 71 71 70 70 71 70 70 70 70 69 68 67 68 68 67 68 69 70 69 68 68 66 64
30 31 29 27 25 24 23 17 20 22 23 22 22 23 25 24 64 66 68 68 68 69 69 69 70 70 70 70 70 70 70 70 69 69 70 69 68 67 68 69 68 70 70 69 67 66 64 63 62
30 28 29 29 28 22 22 20 23 24 24 24 24 25 24 22 37 60 68 67 67 68 69 68 68 68 68 68 68 68 68 69 68 68 68 69 67 68 69 70 69 68 67 67 66 63 63 61 60
28 28 27 30 28 26 23 21 22 24 25 24 25 25 26 22 30 49 67 67 67 68 68 67 67 67 66 67 67 67 67 68 68 67 68 69 69 69 69 68 67 66 66 64 63 61 60 60 59
27 27 24 24 25 25 27 27 27 26 23 21 22 24 25 25 26 60 66 66 66 67 66 66 66 66 67 66 66 66 66 67 68 69 69 69 70 69 68 66 65 65 64 63 62 61 60 59 59
21 20 19 20 22 23 21 19 21 25 26 24 24 24 24 26 42 65 65 65 66 66 66 65 66 67 67 67 66 67 68 68 70 70 69 70 69 68 67 66 64 64 62 61 61 61 59 58 58
20 19 19 19 20 21 19 20 23 25 28 29 25 25 25 25 45 64 66 65 66 65 65 65 66 66 67 68 69 69 70 69 70 70 69 69 69 68 66 65 64 62 62 60 60 60 58 57 61
19 21 21 23 23 18 24 19 21 25 25 25 25 23 24 25 49 63 65 66 66 66 65 65 66 66 67 70 68 68 67 67 69 69 68 68 67 66 66 65 63 62 60 60 61 62 61 60 59
16 26 24 23 26 25 25 21 19 22 22 23 24 24 24 26 52 62 64 65 66 66 66 65 65 65 67 70 69 68 67 68 69 68 66 66 66 66 64 63 62 61 61 60 62 61 60 59 57
17 20 28 27 27 21 23 22 18 18 21 24 23 27 26 24 41 59 63 64 65 66 65 65 64 65 67 69 69 68 68 68 66 65 65 65 64 63 63 62 61 61 61 61 60 59 57 56 55
30 26 17 22 22 19 23 22 21 21 22 23 24 27 25 26 28 54 60 63 64 65 64 64 64 64 66 68 68 67 68 68 65 65 64 63 62 62 62 61 61 60 59 59 58 57 56 55 55
29 26 19 13 18 17 22 21 21 24 24 23 23 25 25 26 26 48 56 62 64 64 64 64 64 62 64 67 67 68 68 67 66 65 64 63 62 62 61 59 58 57 57 57 57 56 56 55 54
31 27 27 23 26 21 23 24 23 20 20 22 25 25 24 27 27 28 56 59 62 64 64 64 64 63 63 66 68 67 66 64 64 63 63 62 62 60 58 57 56 55 54 54 53 51 52 52 51
31 36 29 31 19 17 22 24 18 20 20 20 20 25 33 36 33 29 50 58 61 62 63 64 64 64 63 67 67 65 63 63 63 63 62 61 58 57 55 53 52 50 50 49 48 47 48 48 46
33 33 35 32 25 15 19 23 26 23 23 22 22 23 32 35 38 35 36 59 59 61 61 62 64 66 64 66 64 63 63 63 63 61 59 56 55 52 50 49 48 47 46 46 46 46 45 45 45
32 33 34 30 26 26 23 20 26 30 30 27 31 35 36 38 40 38 35 59 59 59 60 62 65 66 65 64 63 62 62 61 59 56 55 53 49 48 47 46 44 44 43 43 44 43 44 45 46

GFSSGP_sfc_dewp_147.txt.gz
Dewpoint
58 52 40 36 25 27 22 23 28 27 26 28 27 26 27 31 44 44 66 66 69 71 75 75 76 76 76 75 75 76 76 76 76 76 76 76 75 75 75 76 76 76 74 73 73 73 73 72 72
55 38 36 31 18 15 12 21 24 26 27 28 27 26 30 44 50 62 64 69 70 73 75 74 77 76 76 75 75 75 75 76 75 75 75 75 75 75 76 76 76 75 74 73 72 72 71 72 72
44 35 23 23 19 8 9 16 21 26 27 26 25 26 30 49 59 61 66 70 72 73 75 75 77 76 76 76 75 75 75 75 75 75 75 75 75 75 75 76 75 75 73 73 73 72 71 72 72
32 29 28 23 18 15 8 19 25 24 23 24 22 22 27 61 60 62 69 71 71 73 74 75 76 76 76 76 75 75 74 74 74 75 75 75 75 75 75 75 75 75 73 73 73 72 72 72 72
29 20 13 15 14 16 22 21 23 22 21 21 20 21 24 57 63 68 70 70 70 71 73 75 76 76 75 76 75 74 74 74 74 75 75 75 75 75 75 75 75 74 73 73 72 72 72 72 71
28 23 8 1 5 6 15 21 22 21 20 20 20 23 30 66 66 69 69 69 69 70 73 74 76 76 75 75 75 75 74 74 74 74 75 75 75 75 75 75 75 74 73 73 72 71 71 71 70
30 23 14 9 3 3 4 14 19 19 19 19 20 20 31 64 67 69 69 69 69 70 72 74 73 74 75 75 75 75 74 74 73 74 74 75 75 75 75 75 75 74 74 73 72 71 71 70 70
32 27 20 17 12 9 7 11 12 13 9 16 21 18 19 53 68 68 69 70 70 70 71 72 73 71 70 72 75 74 75 74 74 74 74 74 74 75 75 74 74 74 73 72 71 71 70 70 69
32 28 20 19 18 16 11 9 8 13 14 14 16 20 38 61 68 67 68 69 69 69 71 72 72 72 69 68 71 74 75 75 74 73 74 73 69 70 71 72 73 73 72 72 71 71 71 70 70
32 26 23 23 22 17 14 11 9 14 14 14 18 22 62 65 66 66 67 67 68 68 69 71 72 71 70 68 70 70 69 69 70 69 71 69 71 71 69 71 73 73 72 72 72 71 70 69 64
28 27 25 25 25 23 20 18 17 16 17 18 15 19 59 65 66 66 66 67 67 68 69 71 72 72 71 68 70 69 68 70 70 71 71 71 70 70 68 69 69 70 71 67 68 68 66 66 65
23 25 28 27 28 28 26 24 23 23 20 21 23 24 48 60 63 65 66 67 67 68 70 72 71 71 72 70 69 68 68 69 68 68 71 70 68 70 69 66 68 69 67 69 69 66 69 68 68
27 23 21 20 24 25 28 27 26 26 27 26 27 29 29 31 47 60 66 67 68 69 70 71 71 73 72 72 69 69 68 68 68 69 69 68 66 68 67 68 67 67 69 69 70 69 68 69 68
27 28 27 26 23 21 20 19 21 23 28 30 30 28 28 28 31 41 66 68 68 68 70 71 72 73 72 71 72 70 70 70 70 69 69 69 67 68 66 68 67 68 69 70 70 70 70 70 69
29 28 28 26 27 26 21 17 16 20 21 25 25 26 27 28 30 36 63 68 68 68 69 70 72 72 72 72 71 70 69 69 69 70 71 69 69 69 67 65 67 69 70 72 72 71 71 69 68
30 30 25 25 24 24 24 13 12 16 21 23 22 20 22 23 27 46 62 68 69 69 70 70 69 71 72 72 71 70 69 69 69 69 70 70 69 68 69 68 68 70 70 70 71 70 69 68 66
28 22 24 27 28 24 23 18 18 21 23 26 26 25 21 22 32 49 65 68 69 70 71 70 71 70 71 71 71 71 72 70 68 69 68 70 69 69 70 69 70 72 71 71 70 68 68 66 65
20 25 25 26 27 26 25 23 23 24 25 26 27 29 29 27 30 54 68 69 70 70 71 70 70 70 71 71 71 70 69 69 69 68 68 70 70 68 69 70 71 71 70 69 67 67 63 63 61
22 24 25 25 28 27 25 26 28 30 30 29 28 28 30 32 33 41 67 69 69 70 71 71 71 71 71 69 67 67 67 68 68 68 70 70 70 69 70 70 70 70 69 68 66 64 64 60 61
20 21 25 26 25 24 25 24 26 26 27 28 30 30 29 31 33 41 59 69 69 70 71 70 70 71 70 69 69 66 67 67 67 69 70 71 70 71 70 71 70 69 66 66 65 65 61 59 62
20 17 20 22 23 23 23 22 24 25 27 29 30 32 32 32 33 44 59 67 68 69 69 70 70 70 70 70 69 69 68 69 68 68 68 71 71 71 71 70 68 67 66 63 64 63 61 59 62
19 17 18 20 21 18 21 16 21 24 26 28 30 31 30 32 33 40 59 65 67 68 69 69 69 69 69 70 69 70 64 63 65 69 71 72 71 70 69 67 65 65 65 64 63 63 62 62 60
23 21 20 18 19 21 20 18 18 23 21 23 29 30 31 32 32 39 54 63 65 68 68 69 69 69 70 70 70 68 68 67 70 70 69 69 70 68 66 65 64 64 62 65 65 64 63 61 60
27 18 20 23 26 25 22 19 14 16 21 23 26 29 30 28 32 41 51 60 65 67 67 68 69 69 70 70 70 71 70 70 68 67 67 66 67 65 64 65 64 64 64 65 63 62 61 59 57
25 21 18 17 21 17 17 18 20 21 21 22 25 25 28 30 32 44 49 57 64 66 67 67 68 68 69 69 70 70 71 71 69 67 65 65 65 64 64 64 64 64 65 63 61 60 60 59 58
28 28 22 13 8 9 15 16 15 22 23 25 26 27 28 29 29 35 47 55 57 64 67 67 67 68 68 69 71 71 71 70 67 66 66 65 64 63 64 63 62 61 61 60 61 58 57 59 56
26 28 27 21 18 21 18 21 22 23 22 24 24 26 27 28 29 32 41 52 57 61 66 67 66 67 68 69 71 70 68 66 65 65 65 64 62 60 59 59 58 58 58 59 59 56 56 55 54
30 35 31 32 23 19 16 17 14 21 22 21 22 24 26 26 26 34 35 50 57 61 64 66 67 66 67 70 69 67 65 64 64 64 64 63 61 57 56 55 54 54 54 54 54 52 52 52 49
33 35 36 34 31 22 16 15 25 25 23 24 23 24 26 26 23 27 37 44 54 60 62 66 66 65 68 67 65 64 64 64 64 64 62 61 57 55 53 52 51 50 51 52 51 51 49 50 51
26 26 31 29 26 28 25 22 24 30 29 31 30 29 27 29 27 24 36 46 53 59 62 64 66 66 66 64 64 64 64 63 62 61 59 57 52 52 50 49 48 47 47 49 49 48 49 50 50

GFSSGP_sfc_dewp_150.txt.gz
Dewpoint
56 50 37 27 19 18 18 17 22 25 25 26 26 26 25 27 33 46 62 65 65 69 73 73 76 77 77 77 77 76 76 76 76 76 76 76 75 76 76 76 76 76 74 74 74 74 74 73 72
46 37 28 19 13 17 18 19 19 23 25 27 26 26 26 29 47 57 62 65 67 71 74 71 76 76 76 77 77 77 77 76 76 76 76 75 75 76 76 76 76 75 74 73 73 72 73 72 72
42 31 16 11 14 14 18 20 18 19 24 26 26 25 25 35 55 56 64 66 68 72 73 73 76 76 76 76 76 76 76 76 76 76 76 75 76 76 76 76 76 74 73 72 72 72 72 72 72
30 23 18 16 17 18 19 20 20 17 19 21 24 23 25 52 55 60 66 67 69 71 71 76 76 76 76 76 76 76 76 76 76 76 75 75 76 76 76 76 75 75 73 73 72 72 72 72 72
29 20 14 12 14 18 19 17 20 17 18 18 21 21 24 39 58 63 66 66 68 68 70 74 76 76 75 76 76 75 75 75 75 75 75 75 75 75 76 76 75 75 73 73 72 72 72 72 72
23 19 11 11 16 16 16 17 19 18 17 16 15 17 21 58 62 65 66 66 65 66 70 72 76 76 75 75 75 75 74 74 74 74 75 75 75 75 76 75 75 74 73 72 71 71 71 71 71
25 20 13 9 11 14 14 12 15 15 14 13 11 14 18 49 60 65 67 65 64 65 69 71 70 74 75 75 74 74 74 74 74 74 75 75 75 75 75 75 75 74 73 72 71 71 70 70 69
27 22 19 15 11 11 14 7 6 6 6 7 12 11 15 22 59 64 65 63 62 64 67 69 69 68 68 71 74 74 74 74 74 74 75 75 75 75 75 74 75 74 72 71 71 70 70 69 69
32 24 20 16 11 13 14 12 11 10 10 9 8 11 17 42 58 62 64 63 62 64 67 68 68 68 65 65 70 74 74 74 74 73 74 73 66 69 71 72 74 72 72 71 71 70 70 70 70
27 22 22 19 17 14 14 16 12 11 11 10 11 13 24 51 56 59 63 63 63 64 65 66 70 67 65 63 68 67 67 66 65 66 69 64 67 67 65 71 73 72 72 72 71 70 70 68 59
20 20 14 19 22 23 21 18 16 13 13 13 13 15 28 47 54 56 60 64 64 65 66 67 71 71 66 65 66 65 65 66 66 66 67 66 67 68 66 67 66 67 70 65 67 67 63 61 62
16 18 19 19 20 23 24 25 23 20 18 14 16 15 19 41 48 53 58 61 65 66 67 69 71 72 70 65 65 65 64 66 66 66 68 67 65 67 64 62 63 65 62 64 63 61 66 67 67
23 22 20 18 19 18 23 24 24 25 25 23 20 20 23 26 39 50 56 61 65 67 69 71 73 73 71 70 66 66 65 67 66 66 67 66 63 65 64 64 62 63 65 65 66 66 67 67 67
19 18 23 24 22 22 20 18 17 18 25 27 28 25 25 25 28 33 43 56 65 68 70 71 72 73 72 71 71 68 68 68 66 65 65 66 64 66 63 65 63 65 65 66 68 69 69 68 68
24 23 21 19 21 23 23 21 19 18 18 21 25 28 28 27 27 29 32 44 62 67 71 72 72 73 73 72 71 69 67 66 66 64 68 67 67 68 66 62 65 67 70 72 72 72 71 69 68
26 24 20 19 16 18 22 19 19 17 16 16 20 21 25 26 23 24 30 37 59 67 71 72 70 72 72 72 71 68 67 66 65 65 67 68 68 68 67 63 66 68 70 69 70 71 70 69 68
22 22 20 20 18 22 23 21 20 20 18 19 19 21 21 24 27 32 32 38 57 67 71 71 72 70 72 72 71 70 71 67 65 66 66 69 68 68 66 64 68 73 70 70 70 70 71 69 68
11 12 13 16 20 21 23 22 20 22 22 23 23 26 26 24 25 28 35 45 61 68 73 71 71 72 72 71 71 68 68 68 65 64 63 69 67 69 70 69 72 73 73 70 70 71 69 67 65
20 20 17 18 18 20 22 24 23 26 26 28 28 27 29 31 31 28 35 50 63 69 72 72 73 74 72 69 67 66 65 67 65 65 68 70 68 69 71 69 72 72 73 71 71 69 68 65 65
22 20 18 18 18 20 24 23 25 25 27 29 30 30 30 31 33 31 41 60 67 70 72 72 72 74 71 68 68 66 65 65 65 65 69 70 69 68 68 71 71 72 70 70 69 69 65 63 64
24 22 18 16 17 18 22 24 23 23 26 27 28 30 32 32 33 35 41 62 69 70 71 72 72 73 72 72 69 68 67 66 64 65 67 69 70 68 70 71 71 72 69 68 68 66 65 62 61
22 21 20 19 17 13 16 15 22 21 23 23 26 28 29 32 34 35 42 58 67 70 72 72 72 73 72 72 71 72 66 64 63 65 65 68 70 70 71 72 71 68 67 66 65 64 64 63 59
23 24 21 19 18 18 15 13 18 19 17 20 25 27 28 31 32 32 35 52 63 68 71 72 73 72 72 72 72 68 68 64 64 64 72 72 73 71 70 70 67 66 68 68 66 65 64 61 58
29 24 23 23 17 21 19 14 13 16 18 20 25 25 28 27 31 32 34 51 59 64 68 71 72 72 71 71 70 72 71 69 66 70 69 70 70 69 67 65 65 66 68 67 64 64 64 62 61
29 26 24 17 15 15 15 20 19 22 18 19 23 24 27 30 30 32 33 43 58 62 66 69 71 71 71 71 70 70 70 72 70 68 67 67 67 66 65 65 66 67 67 64 64 64 63 62 60
25 27 26 18 13 14 14 13 12 17 20 23 21 25 28 31 30 31 36 43 53 61 65 67 70 71 71 71 70 70 72 70 69 68 67 67 67 66 65 64 65 65 64 62 63 61 59 61 58
22 22 23 26 30 26 18 17 21 20 18 20 23 27 29 31 31 33 37 45 49 60 65 67 69 70 71 72 72 72 71 68 67 67 67 65 65 64 63 63 61 62 62 61 61 58 58 58 57
26 25 31 34 26 22 18 18 14 19 21 20 22 23 28 29 29 31 33 41 50 56 64 67 68 69 70 71 71 70 68 67 67 67 67 66 64 64 61 60 59 59 58 58 58 56 56 55 52
27 30 36 35 32 24 21 19 29 24 26 23 22 23 24 27 26 28 32 35 47 54 58 66 67 67 69 70 68 67 67 67 67 67 66 65 65 61 59 56 56 55 55 55 54 54 52 53 54
26 25 28 32 27 31 29 23 26 27 27 26 25 22 21 24 24 24 27 34 42 51 56 63 67 67 68 66 66 65 66 67 66 65 64 63 61 58 54 53 53 53 52 53 52 51 51 51 51